Location: Newark
(51.3318°N, 0.0053°E)
Time: 03:00:03
(UTC+00:00)

Envisat - Pass Details

Date: 27 January 2022
Orbit: 764 x 765 km, 98.2° (Epoch: 28 May)

Event Time Altitude Azimuth Distance (km) Brightness Sun altitude
Rises 03:41:24 0° 26° (NNE) 3,243 6.8 -37.6°
Reaches altitude 10° 03:44:25 10° 44° (NE) 2,311 6.1 -37.2°
Maximum altitude 03:47:57 19° 88° (E) 1,775 5.4 -36.7°
Drops below altitude 10° 03:51:29 10° 133° (SE) 2,299 5.7 -36.1°
Sets 03:54:27 0° 151° (SSE) 3,220 6.4 -35.7°
